Location: Ahausen
(50.4985°N, 8.2722°E)
Time: 03:33:02
(UTC+00:00)

NOSS 2-2 (C) - Pass Details

Date: 18 September 2020
Orbit: 468 x 1740 km, 63.3° (Epoch: 19 October)

Event Time Altitude Azimuth Distance (km) Brightness Sun altitude
Rises 18:15:47 0° 187° (S) 2,504 6.6 -7.5°
Reaches altitude 10° 18:18:08 10° 171° (S) 1,625 5.5 -7.9°
Maximum altitude 18:20:55 22° 118° (ESE) 1,093 4.3 -8.3°
Drops below altitude 10° 18:23:55 10° 66° (ENE) 1,766 5.4 -8.8°
Sets 18:26:36 0° 51° (NE) 2,790 6.6 -9.2°
